Weather in Korkino

Russia / Chelyabinsk Oblast     54°53′32″N   61°23′34″E
temp.,
°C
wind,
m/s
gust,
m/s
humid.,
%
clouds,
%
prec.,
mm/h
press.,
hPa
HPBL,
m
23 october, sat
sat2323:00+7sw71486100 1.0 1003328
02:00+6wsw71583100 0.0 1004430
05:00+6wsw6148643 0.0 1005326
08:00+7sw7148652 0.0 1006367
11:00+10wsw6136932 0.0 1008522
14:00+11wsw61165100 0.0 1009951
17:00+10w61265100 0.1 1010516
20:00+8wsw613725 0.1 1012362
24 october, sun
sun2423:00+7wsw5127960 0.1 1014288
02:00+6sw51277100 0.0 1015274
05:00+6sw51289100 0.0 1015251
08:00+6sw3689100 0.0 1014136
11:00+7s51092100 0.9 1012371
14:00+8ssw71691100 2.7 1009737
17:00+10sw91679100 2.8 1008891
20:00+8w81370100 0.1 1011973
25 october, mon
mon2523:00+6wnw61069100 0.1 1013990
02:00+5wsw41080100 0.0 1013314
05:00+4wsw3684100 0.0 1014117
08:00+4wsw2378100 0.0 101566
11:00+6sw1167100 0.0 1015259
14:00+6s2368100 0.1 1014667
17:00+5e0185100 0.7 1013132
20:00+4nw2394100 0.7 1013500
26 october, tue
tue2623:00+4wnw2487100 0.8 1012135
02:00+2nw498584 0.0 1013492
05:00+1nnw7117330 0.0 1016902
08:00−2nnw611705 0.0 1018670
11:000nnw69585 0.0 1020859
14:00+2nnw67474 0.0 10211136
17:00+1nw47521 0.0 1022224
20:00−1nw36625 0.0 1024173
27 october, wed
wed2723:00−1wnw226586 0.0 102535
02:00−2sw236746 0.0 102572
05:00−2sw35675 0.0 1025127
08:00−2ssw38667 0.0 1025214
11:00+1ssw574835 0.0 1025498
14:00+3ssw67425 0.0 1023750
17:00+1s48555 0.0 1022174
20:00−1s4116517 0.0 1022202